Location: Bremen
(53.0793°N, 8.8017°E)
Time: 02:03:36
(UTC+01:00)

Vanguard 2 Rocket - Visible Passes

Search period start: 07 December 2021 00:00
Search period end: 17 December 2021 00:00
Orbit: 555 x 3324 km, 32.9° (Epoch: 06 December)

Date Brightness Start Highest point End Pass type
(mag) Time Alt. Az. Time Alt. Az. Time Alt. Az.
07 Dec 9.3 18:02:05 10° S 18:04:07 12° SSE 18:06:26 10° SE visible
07 Dec 9.4 20:11:13 10° SW 20:15:17 18° S 20:15:17 18° S visible
08 Dec 9.3 19:12:49 10° SSW 19:16:30 15° S 19:18:52 14° SSE visible
08 Dec 9.9 21:24:34 10° SW 21:24:40 10° SW 21:24:40 10° SW visible
09 Dec 9.3 18:15:05 10° S 18:17:12 12° SSE 18:19:37 10° SE visible
09 Dec 9.5 20:25:28 10° SW 20:28:17 14° SSW 20:28:17 14° SSW visible
10 Dec 9.4 19:26:51 10° SSW 19:29:43 13° S 19:31:57 12° SSE visible
11 Dec 9.3 18:28:59 10° S 18:30:23 11° S 18:31:53 10° SSE visible
